Theta_e
339 343 355 355 361 363 363 361 359 361 354 352 353 356 357 357 358 358 351 350 348 347 348 349 351 353 354 350 346 345 349 351 351 350 352 348 344 342 342 342 343 344 342 341 343 345 342 342 342
338 351 355 357 362 367 362 353 360 357 354 352 353 353 355 358 352 351 351 349 348 349 351 350 350 350 352 347 348 348 352 353 353 352 350 346 343 345 347 348 347 345 351 345 343 342 341 342 340
352 353 353 358 360 365 366 357 357 354 353 353 355 352 353 355 351 348 351 349 349 350 350 349 349 349 350 348 348 350 349 346 349 353 352 351 342 345 347 346 347 348 347 343 344 343 342 343 341
349 352 352 358 363 363 358 358 353 357 352 352 354 358 352 349 348 350 350 347 350 350 349 350 348 352 353 352 351 353 349 350 350 350 346 346 342 350 351 350 347 345 346 345 349 351 351 347 342
352 354 360 360 361 354 357 353 353 355 354 354 353 356 354 348 348 350 349 348 350 348 346 350 351 353 353 353 353 353 350 350 347 349 351 348 349 351 351 352 352 351 352 351 352 351 347 346 344
353 350 360 359 361 360 359 354 352 354 355 354 355 355 352 347 348 349 350 351 350 348 346 345 347 346 350 353 353 352 353 350 352 350 347 345 345 348 348 351 350 350 349 350 349 350 351 348 344
357 350 357 359 360 362 360 353 351 352 353 355 351 356 350 347 347 348 351 352 351 348 348 348 350 352 351 353 353 353 352 352 352 351 348 350 348 346 349 352 352 352 350 349 348 350 350 346 343
347 350 354 356 361 359 355 355 352 354 352 351 350 355 353 347 349 350 350 352 352 348 349 347 352 352 352 353 353 353 350 350 351 351 350 343 345 343 344 350 351 351 350 349 348 349 348 344 342
349 351 356 358 358 360 356 355 350 353 355 353 351 349 347 348 349 351 352 352 352 352 349 346 348 348 346 346 352 352 350 350 350 350 349 345 341 343 346 349 349 349 349 348 347 349 345 343 342
347 351 354 355 353 358 356 356 356 353 356 356 353 348 348 348 348 348 348 348 351 351 351 350 348 347 347 345 349 351 350 349 349 346 345 342 340 343 346 350 351 346 342 341 340 342 350 346 342
349 348 349 353 353 357 356 356 354 353 352 354 356 351 348 348 348 348 348 348 348 349 350 351 350 348 348 348 349 350 350 347 348 343 344 345 345 345 346 348 348 344 343 343 345 345 346 343 345
351 348 349 355 354 353 357 353 353 353 352 351 351 350 348 348 347 348 348 349 349 349 348 350 349 350 350 350 349 347 348 345 348 346 343 341 345 348 347 347 345 345 345 344 345 348 348 347 344
353 356 347 347 346 353 353 356 354 350 350 348 348 349 349 348 347 348 348 349 348 348 349 349 349 349 350 349 350 347 349 347 348 346 341 342 345 346 346 344 345 344 341 342 347 348 348 346 346
352 351 346 348 346 351 356 354 350 349 347 347 347 346 347 348 348 347 347 348 349 349 349 349 349 349 350 350 349 348 349 347 347 345 342 344 344 345 346 339 342 344 345 346 348 348 343 336 344
347 348 342 341 348 347 354 358 357 349 347 347 344 345 346 349 347 347 347 348 349 348 348 349 348 348 349 349 348 349 348 347 347 342 342 344 343 342 343 342 344 344 345 347 348 349 345 335 342
349 346 346 343 349 347 352 355 354 350 347 347 345 345 350 345 346 346 347 348 348 348 349 348 350 349 349 348 348 348 347 346 344 342 342 339 342 342 342 345 347 347 348 347 348 348 338 343 346
337 346 351 351 349 354 352 354 351 349 347 346 345 344 346 343 342 346 347 347 348 349 348 349 348 348 348 348 348 348 346 345 343 345 344 347 344 347 345 344 345 347 348 344 348 345 346 344 344
331 340 346 353 351 352 356 355 352 351 352 350 345 345 345 341 343 345 347 347 347 347 348 349 347 346 345 346 347 346 346 345 343 345 342 349 344 343 339 343 343 347 343 347 347 346 348 348 347
327 329 332 352 351 354 354 354 350 352 352 349 344 345 347 346 340 344 345 346 347 347 349 347 346 346 345 345 345 344 345 345 346 345 349 344 344 342 338 338 338 345 346 347 348 348 348 345 344
326 326 329 341 350 350 351 353 353 352 352 350 346 346 346 344 341 342 344 346 347 348 347 346 346 344 345 345 345 344 345 346 345 344 344 342 346 340 340 337 338 345 346 348 349 351 342 346 341
327 325 327 330 338 350 339 346 355 350 347 348 345 346 344 343 342 343 344 345 347 348 347 347 346 345 343 344 345 345 345 346 346 343 343 341 347 346 346 337 338 339 344 347 350 351 346 337 338
325 325 327 330 329 331 331 332 351 346 346 346 340 343 345 342 342 343 345 345 347 347 348 347 345 345 341 343 341 345 346 346 345 345 347 343 349 347 343 342 340 339 345 348 350 352 348 337 336
324 325 327 330 330 328 329 335 337 346 346 346 345 347 347 343 343 343 345 345 346 347 347 346 344 342 339 340 340 344 346 345 343 344 347 346 349 349 350 343 350 348 349 350 351 351 349 349 348
325 325 323 325 325 328 327 335 336 349 347 344 345 349 345 345 343 342 342 345 346 349 348 346 343 342 340 339 340 343 343 342 342 342 346 348 349 350 352 350 349 352 352 354 353 349 351 351 349
323 318 321 324 326 329 325 336 334 341 342 344 342 342 344 343 342 343 342 345 346 349 348 347 345 345 345 344 345 343 346 339 347 347 346 347 347 349 350 350 351 352 353 352 353 352 351 351 352
323 318 319 326 328 327 335 338 335 336 340 340 338 341 342 341 341 344 344 345 347 347 349 348 347 346 349 348 345 346 346 348 347 346 349 346 346 349 346 346 351 352 349 348 350 353 348 347 352
323 321 317 319 321 323 324 329 336 338 338 340 339 343 348 345 341 343 344 344 347 347 350 349 347 346 346 349 348 347 348 348 345 345 346 346 349 350 349 348 346 351 350 349 351 350 350 350 350
322 320 321 316 326 328 328 332 338 340 344 343 342 344 337 335 339 342 345 344 348 347 349 350 349 348 347 348 347 347 347 344 344 349 342 346 348 347 344 350 348 351 349 349 349 349 349 350 350
320 320 318 315 320 323 327 327 334 339 341 345 344 344 338 340 339 344 345 345 347 348 348 349 350 350 349 350 349 349 348 345 346 348 350 350 348 348 349 350 349 348 350 349 350 351 350 348 349
319 319 315 316 318 321 321 324 325 336 339 344 345 342 341 338 344 344 344 345 347 348 349 349 350 350 350 349 349 351 349 349 347 346 347 348 348 347 349 348 348 347 348 349 351 349 352 351 350
Wind_Speed
5 5 7 3 5 5 0 4 6 9 8 4 10 10 8 9 1 3 16 20 28 28 24 21 18 17 16 17 16 15 13 14 14 15 15 17 17 17 16 16 15 13 12 11 10 11 10 7 5
4 3 0 2 4 3 2 1 14 12 4 13 10 8 9 3 7 12 13 29 30 29 25 22 20 18 16 17 15 14 14 13 13 14 13 14 13 13 12 11 12 11 10 11 10 10 9 9 6
5 3 3 4 2 2 4 8 16 12 10 3 6 8 4 3 12 5 24 31 30 28 25 22 21 19 18 16 15 14 12 13 12 12 11 10 10 10 11 11 10 9 9 10 10 10 9 8 6
3 4 3 4 3 3 4 8 14 6 13 8 13 8 5 7 12 19 29 30 30 26 24 22 21 17 17 16 14 14 13 12 12 10 10 10 8 8 10 10 10 9 9 9 9 9 7 6 6
1 2 3 3 2 5 7 9 10 5 6 8 4 3 3 3 18 35 30 30 29 26 24 22 21 19 17 16 15 13 12 11 10 10 10 9 9 10 11 10 9 9 9 9 9 8 8 7 6
4 1 4 3 3 5 6 11 12 3 13 13 11 6 2 21 33 31 31 28 26 28 25 23 20 19 17 15 14 13 12 10 9 9 10 9 9 9 10 9 8 7 8 8 8 9 8 7 7
2 3 1 1 3 4 4 4 2 1 9 6 14 5 5 11 22 27 29 27 26 26 25 23 20 18 17 15 14 13 12 10 9 7 7 8 9 9 10 8 8 7 6 6 7 9 9 7 6
4 3 4 2 1 3 2 1 2 4 3 14 16 6 7 7 23 29 30 26 24 24 21 22 22 19 17 15 14 13 11 9 8 8 9 9 8 7 7 8 7 5 5 6 5 8 8 8 4
3 4 2 2 3 3 3 2 1 9 9 5 1 9 14 24 26 28 27 25 23 22 19 21 22 20 18 16 13 12 10 9 8 9 10 6 8 7 6 5 3 4 4 4 4 6 7 7 7
3 3 5 5 4 4 2 5 4 4 8 7 11 16 23 25 26 22 19 17 25 22 22 20 20 19 17 16 14 12 10 10 10 11 9 7 6 4 1 3 3 3 3 2 3 4 6 5 4
7 2 5 1 4 6 4 6 4 8 2 7 19 17 15 19 20 20 20 26 29 23 24 23 20 18 19 17 16 14 12 11 11 11 8 5 4 1 2 4 3 2 2 4 5 4 6 9 8
5 3 0 1 3 4 3 4 2 3 5 13 15 14 13 11 14 19 17 19 21 25 23 24 20 22 21 17 17 14 13 13 11 9 8 6 4 1 2 2 5 4 3 6 10 6 7 7 8
5 3 2 5 10 1 6 4 4 2 4 10 11 13 12 11 17 19 21 24 23 23 22 20 20 21 21 19 18 16 16 15 12 9 8 6 3 1 3 4 3 4 4 7 7 7 8 7 6
5 6 5 4 3 3 6 2 2 6 5 7 9 7 11 13 17 16 20 24 24 25 22 19 20 19 22 22 20 19 18 14 13 10 6 6 3 1 6 8 5 2 6 4 6 1 3 7 9
9 1 5 4 5 2 7 2 8 7 8 7 9 11 16 16 17 22 27 26 27 23 22 19 17 18 21 22 19 19 17 11 12 9 8 8 2 1 2 6 6 2 6 5 5 4 7 3 6
4 4 3 3 6 5 7 8 12 7 12 11 11 7 11 13 23 24 28 27 27 25 24 19 16 16 16 18 20 19 15 12 14 9 10 9 5 2 5 4 6 5 1 2 4 7 5 5 7
2 2 7 5 11 4 8 7 7 9 3 9 8 6 15 9 12 23 28 29 30 29 26 20 16 16 16 17 21 18 14 13 14 12 10 9 7 7 6 3 6 4 5 2 3 6 5 6 10
5 5 2 6 7 11 9 15 4 13 15 15 6 6 4 6 14 23 27 26 28 29 25 21 17 16 16 19 20 16 17 11 13 11 11 9 9 8 9 0 3 4 5 3 7 9 6 7 6
8 8 10 6 9 12 16 15 9 15 13 10 8 9 10 6 10 24 26 28 28 28 26 24 20 18 20 21 19 18 17 17 15 15 12 10 12 16 5 3 4 8 8 5 0 4 3 5 9
8 9 7 5 8 12 7 16 6 18 12 13 12 11 15 15 7 18 27 28 32 32 31 26 22 21 23 23 21 21 19 16 19 18 14 12 12 14 12 6 11 10 8 8 5 3 13 7 4
16 6 6 7 1 7 3 2 1 2 4 6 7 10 13 19 11 14 22 27 28 31 31 27 24 22 24 23 20 20 16 11 14 14 14 14 9 13 9 10 11 7 7 5 6 6 9 10 7
5 6 6 4 3 3 3 5 5 6 12 7 9 12 13 14 12 12 21 25 29 30 32 27 24 24 24 26 20 21 18 16 17 16 14 16 14 13 11 10 8 10 4 6 7 3 4 4 13
10 7 6 3 1 3 4 2 4 3 11 17 14 12 14 16 16 16 22 30 29 31 34 29 25 26 27 26 22 21 18 14 14 14 14 16 16 15 12 14 9 7 5 5 5 2 3 2 3
5 2 7 5 4 3 7 5 5 6 19 7 9 13 12 16 18 19 25 30 30 30 31 31 29 28 28 26 25 22 17 15 11 14 18 18 18 18 15 15 15 10 8 5 5 5 4 4 2
4 7 4 4 4 6 7 2 9 9 13 12 16 13 15 11 14 16 17 24 29 31 30 33 32 32 30 28 24 23 19 16 12 11 17 19 18 19 18 14 17 13 10 9 6 6 4 4 6
6 9 6 5 3 7 2 6 7 14 13 6 10 10 6 6 5 15 18 23 31 33 32 31 35 34 33 31 29 24 20 17 13 11 14 22 17 18 17 17 17 15 11 10 11 9 8 5 5
6 3 8 6 1 2 3 8 8 5 4 6 12 7 5 4 8 11 19 26 31 33 34 34 36 34 36 33 31 28 24 20 17 15 12 14 11 7 13 20 22 17 13 12 11 10 9 8 7
8 4 1 2 2 5 4 6 5 6 7 8 12 11 8 11 14 14 17 25 32 35 34 34 36 38 38 36 33 30 27 23 21 15 17 12 12 10 11 9 23 18 15 14 13 12 12 10 9
1 2 1 5 5 6 2 6 7 11 6 12 13 20 17 14 14 15 18 30 34 31 34 32 32 32 32 34 34 30 27 25 22 18 15 12 13 12 14 14 18 18 15 15 15 15 14 13 13
7 8 3 4 7 4 5 7 8 11 12 17 18 18 13 6 13 18 18 29 30 32 32 34 34 34 35 36 34 31 26 25 24 22 20 16 14 17 14 14 14 15 15 16 17 15 16 15 14
Wind_Direction
289 302 335 13 61 100 136 329 294 314 338 351 72 88 95 36 27 157 157 162 155 155 160 160 160 158 155 152 146 137 134 135 140 138 140 138 137 140 148 153 159 161 154 154 155 169 185 211 223
311 331 51 20 84 102 299 272 273 273 305 97 65 65 50 76 63 120 118 153 153 156 159 159 159 156 156 153 148 144 144 140 141 144 144 139 138 144 151 151 158 157 158 159 167 173 191 217 225
343 330 83 94 109 156 180 207 246 271 256 171 110 84 79 82 125 118 147 150 148 153 159 157 160 160 157 155 155 153 152 152 151 150 147 147 151 163 157 163 161 155 157 149 164 177 187 204 208
7 354 41 79 55 134 196 216 231 282 115 104 121 77 79 154 137 139 149 150 150 152 155 157 157 156 154 155 157 156 156 158 154 152 151 163 153 156 156 150 153 154 143 143 154 164 166 181 179
331 43 52 77 43 311 252 246 275 298 81 90 103 89 59 83 144 144 151 154 155 158 161 160 162 159 161 159 161 163 161 158 153 152 165 167 151 156 141 141 139 142 136 143 158 158 167 174 184
6 81 45 358 84 244 260 236 244 32 115 114 93 98 76 137 139 153 156 162 161 161 165 168 170 166 166 163 166 165 168 160 164 169 171 175 151 144 131 133 136 141 148 157 173 167 181 192 207
177 76 129 227 332 188 213 211 90 317 128 151 143 106 142 144 160 156 160 164 163 166 163 164 166 169 173 168 171 168 167 159 167 163 168 162 152 145 141 149 140 152 149 172 186 182 190 206 190
136 113 340 342 349 275 224 97 351 352 5 124 137 153 178 182 138 151 162 168 161 167 171 170 171 174 174 174 172 170 169 156 150 158 156 156 143 142 157 145 137 143 158 185 195 212 203 208 173
133 68 229 282 292 234 227 145 8 55 70 49 320 124 132 147 147 138 143 157 165 171 178 179 180 183 184 183 176 176 172 156 150 154 156 163 166 150 145 143 132 133 171 169 189 222 217 222 202
102 149 191 184 267 206 144 108 357 72 82 73 93 115 131 139 142 142 153 160 170 181 182 188 187 189 191 191 182 184 173 167 167 169 166 176 166 165 164 116 129 145 130 195 205 212 229 233 233
182 117 195 2 172 134 120 128 220 149 69 176 150 161 158 151 156 159 168 175 183 184 184 190 191 192 192 197 191 188 179 174 175 179 180 161 151 67 323 19 170 150 156 220 240 243 234 206 194
98 40 39 326 352 119 149 112 141 185 200 172 165 166 167 166 164 171 176 179 176 178 185 189 201 195 198 199 196 191 183 176 182 187 190 178 136 58 352 300 161 161 322 277 245 213 224 220 210
94 133 79 306 355 20 125 160 197 252 197 177 156 169 186 193 179 184 183 189 190 184 185 189 193 193 197 204 201 191 190 190 191 190 176 174 134 29 323 339 155 208 327 289 251 245 238 219 221
159 147 168 161 351 237 136 149 102 243 194 199 186 195 202 203 190 175 179 185 189 185 183 186 187 198 199 201 200 197 199 202 192 197 174 159 138 284 323 154 224 162 337 307 298 226 197 215 202
165 42 291 166 140 240 114 115 236 215 186 234 222 226 195 196 187 177 181 186 192 191 183 176 185 195 202 207 208 200 197 199 193 185 192 166 139 271 49 61 68 39 321 288 260 219 208 220 162
170 56 15 285 139 237 151 259 237 199 171 225 245 205 195 199 180 184 183 188 193 188 180 176 187 190 191 194 196 189 190 196 191 184 175 173 168 208 186 38 2 329 279 267 251 197 146 159 168
354 240 213 286 171 218 174 255 235 161 155 235 241 274 171 179 175 184 181 188 192 187 179 175 185 187 184 185 185 176 178 180 187 177 170 163 172 161 177 172 4 70 140 176 242 204 220 154 148
269 260 256 216 197 214 204 244 216 155 194 205 197 136 143 181 189 185 181 188 181 179 175 178 178 176 171 171 177 178 178 176 175 179 175 186 173 146 154 30 59 168 141 191 234 252 237 212 200
256 268 270 212 179 188 218 231 205 182 196 218 168 175 164 224 189 183 175 177 178 178 177 176 175 171 168 168 169 169 175 170 170 176 172 178 167 159 166 273 144 149 158 104 239 225 209 169 189
256 242 284 231 179 184 216 241 185 183 195 206 197 187 184 196 207 161 161 161 171 174 178 176 178 172 171 171 171 172 169 178 184 189 172 184 173 165 187 164 154 128 118 122 130 181 179 165 213
273 262 281 270 271 185 119 333 344 281 283 223 220 189 191 189 195 162 165 163 166 172 179 179 180 175 178 174 167 174 174 167 181 197 190 191 176 175 193 192 166 126 117 103 69 121 164 132 89
238 243 233 298 80 211 138 280 241 222 243 233 233 206 203 202 191 168 168 173 170 176 179 180 180 174 180 184 182 175 180 170 185 187 187 185 183 178 170 152 163 149 109 99 86 91 128 142 144
242 235 254 264 237 29 327 93 265 74 249 236 235 202 205 200 190 179 178 175 175 174 179 179 177 175 177 185 188 187 192 193 187 192 190 189 191 188 191 204 189 169 132 123 135 208 118 58 345
274 337 40 43 85 352 250 153 272 188 227 237 232 204 205 192 188 189 177 175 174 175 177 180 178 181 180 187 191 197 200 199 170 194 198 200 196 197 206 213 210 196 184 180 164 204 177 187 248
138 60 353 343 354 234 311 165 238 236 237 203 221 200 208 194 182 185 178 172 171 174 176 181 183 186 186 185 192 200 200 188 189 188 204 200 206 212 212 212 208 214 206 217 206 213 226 196 208
218 151 160 219 211 272 314 257 256 229 213 170 217 82 86 227 213 187 184 175 174 175 177 182 186 189 193 191 193 202 199 194 199 205 206 205 212 227 222 215 207 208 222 216 222 233 259 234 234
230 170 186 136 167 11 240 284 300 81 32 209 196 131 107 207 246 208 187 180 178 178 180 182 188 194 196 194 194 197 201 203 209 208 201 198 211 221 227 234 217 208 220 227 224 227 248 249 248
166 173 130 5 158 276 290 274 238 89 167 179 179 171 169 205 208 192 189 185 183 182 180 185 191 195 198 198 197 198 205 209 209 215 202 214 198 203 222 240 199 202 216 226 230 238 245 253 271
350 252 123 130 144 180 230 271 226 194 164 144 173 177 197 241 217 191 185 185 186 177 180 184 188 194 197 200 200 200 204 205 209 211 208 213 212 199 194 183 195 209 213 223 234 244 246 250 260
182 204 146 131 271 231 165 264 253 174 191 168 176 184 208 242 179 173 175 180 180 179 178 182 183 191 199 202 203 201 200 204 211 215 220 221 223 203 209 209 216 224 227 229 230 242 245 254 260